User: anonymous   Login
Location: Unspecified
(0.0000°N, 0.0000°E)
Time: 23:39:29
(UTC+00:00)
Language:

APRIZESAT 4 - Orbit

View from above orbital plane
View from above orbital plane
View from above satellite
View from above satellite

Ground track
Ground track

The orbit data is extracted from the following two-line orbital elements,

1 35684U 09041D   18140.49105080 +.00000065 +00000-0 +16084-4 0  9995
2 35684 098.1719 092.1746 0048664 091.5997 028.6086 14.79128747474993
Epoch (UTC): 20 May 2018 11:47:06
Eccentricity: 0.0048664
inclination: 98.1719°
perigee height: 598 km
apogee height: 666 km
right ascension of ascending node: 92.1746°
argument of perigee: 91.5997°
revolutions per day: 14.79128747
mean anomaly at epoch: 28.6086°
orbit number at epoch: 47499

The dashed part of the orbit path shows where the satellite is in the earth's shadow,  

DLR